Location: Shenandoah County Park
(38.9356°N, 78.4524°W)
Time: 08:57:00
(UTC-05:00)

Tiros 1 - Visible Passes

Search period start: 27 January 2023 00:00
Search period end: 06 February 2023 00:00
Orbit: 628 x 662 km, 48.4° (Epoch: 26 January)

Date Brightness Start Highest point End Pass type
(mag) Time Alt. Az. Time Alt. Az. Time Alt. Az.
27 Jan 9.7 04:24:16 16° NE 04:24:16 16° NE 04:25:16 10° NE visible
27 Jan 8.6 06:01:54 19° NW 06:03:51 25° N 06:07:48 10° NE visible
28 Jan 9.1 04:48:34 21° NNE 04:48:34 21° NNE 04:50:43 10° NE visible
28 Jan 8.5 06:26:11 12° NW 06:29:45 27° N 06:33:50 10° ENE visible
29 Jan 8.7 05:12:50 25° N 05:12:50 25° N 05:16:25 10° NE visible
29 Jan 8.2 06:51:13 10° NW 06:55:34 36° NNE 06:59:58 10° E visible
30 Jan 8.5 05:37:06 24° NNW 05:38:23 27° N 05:42:25 10° ENE visible
31 Jan 9.7 04:23:45 16° NE 04:23:45 16° NE 04:25:02 10° NE visible
31 Jan 8.3 06:01:22 18° NW 06:04:13 34° NNE 06:08:33 10° E visible
01 Feb 9.0 04:48:02 24° NNE 04:48:02 24° NNE 04:50:59 10° ENE visible
01 Feb 7.7 06:25:39 12° NW 06:29:54 53° NNE 06:34:33 10° ESE visible
02 Feb 8.3 05:12:21 32° N 05:12:51 33° NNE 05:17:07 10° E visible
02 Feb 7.2 06:50:39 10° WNW 06:55:22 82° SW 07:00:08 10° SE visible
03 Feb 10.1 03:59:04 12° ENE 03:59:04 12° ENE 03:59:34 10° ENE visible
03 Feb 7.7 05:36:42 31° NNW 05:38:33 50° NNE 05:43:09 10° E visible
04 Feb 9.3 04:23:28 22° ENE 04:23:28 22° ENE 04:25:40 10° ENE visible
04 Feb 7.1 06:01:06 23° WNW 06:04:02 89° SW 06:08:47 10° SE visible
05 Feb 8.2 04:47:56 42° NE 04:47:56 42° NE 04:51:43 10° E visible
05 Feb 7.7 06:25:34 14° WNW 06:29:20 42° SW 06:33:47 10° SSE visible
